FW7079 Weather Reports


time (UTC)temp
C
wind
direction
speed
KPH
gust
KPH
rain 1hr
cm
rain 24hr
cm
rain mn
cm
humidity
%
barometer
mb
20260510094553 14 0 0.0 0.0 0.00 0.41 0.00 94 1012.0
20260510093054 14 0 0.0 0.0 0.00 0.41 0.00 94 1012.1
20260510091554 14 0 0.0 0.0 0.00 0.41 0.00 94 1012.2
20260510090052 15 0 0.0 0.0 0.00 0.41 0.00 94 1012.3
20260510084551 15 0 0.0 0.0 0.00 0.41 0.00 94 1012.6
20260510083051 15 132 0.0 0.0 0.00 0.41 0.00 94 1012.5
20260510081551 15 0 0.0 1.6 0.00 0.41 0.00 94 1012.7
20260510074553 14 0 0.0 1.6 0.00 0.41 0.00 94 1012.3
20260510073114 14 142 0.0 3.2 0.00 0.41 0.00 94 1012.2
20260510071555 15 78 0.0 3.2 0.00 0.41 0.00 94 1012.3
20260510064621 15 109 0.0 1.6 0.00 0.41 0.00 94 1014.0
20260510063100 15 0 0.0 3.2 0.00 0.41 0.00 93 1014.4
20260510061553 15 131 0.0 1.6 0.00 0.41 0.00 93 1015.0
20260510060053 15 48 1.6 4.8 0.00 0.41 0.00 93 1014.4
20260510054604 15 18 0.0 6.4 0.05 0.41 0.00 92 1014.2
20260510053055 15 235 0.0 8.0 0.15 0.41 0.00 92 1014.1
20260510051601 16 223 0.0 4.8 0.38 0.41 0.00 91 1013.9
20260510050055 16 234 0.0 9.7 0.41 0.41 0.00 90 1014.3
20260510044556 16 46 1.6 4.8 0.36 0.38 0.36 88 1013.7
20260510043057 17 0 1.6 17.7 0.23 0.25 0.23 82 1016.0
20260510041554 18 11 0.0 3.2 0.03 0.05 0.03 74 1014.7
20260510040057 21 44 0.0 1.6 0.00 0.03 0.00 66 1013.1
20260510034614 21 217 0.0 1.6 0.00 0.03 0.00 58 1012.5
20260510033057 21 188 0.0 8.0 0.00 0.03 0.00 59 1010.7
20260510031554 21 40 3.2 8.0 0.00 0.03 0.00 61 1009.8
20260510030054 21 45 0.0 3.2 0.00 0.03 0.00 61 1010.4
20260510024558 21 61 0.0 3.2 0.00 0.03 0.00 62 1010.2
20260510023053 20 0 0.0 0.0 0.00 0.03 0.00 63 1010.3
20260510021602 20 0 0.0 1.6 0.00 0.03 0.00 63 1009.6
20260510020056 21 0 0.0 0.0 0.00 0.03 0.00 60 1009.3
20260510014600 21 0 0.0 1.6 0.00 0.03 0.00 58 1008.2
20260510013135 22 0 0.0 0.0 0.00 0.03 0.00 59 1008.1
20260510011559 22 0 0.0 0.0 0.00 0.03 0.00 56 1008.2
20260510010054 23 0 0.0 0.0 0.00 0.03 0.00 54 1008.1
20260510004554 24 0 0.0 0.0 0.00 0.03 0.00 51 1008.1
20260510003104 25 0 0.0 1.6 0.00 0.03 0.00 49 1008.1
20260510001554 26 61 0.0 4.8 0.00 0.03 0.00 45 1008.2
20260510000116 27 61 1.6 8.0 0.00 0.03 0.00 43 1008.2
20260509234551 27 55 1.6 6.4 0.00 0.13 0.00 41 1008.3
20260509233052 28 78 1.6 8.0 0.00 0.13 0.00 39 1008.2
20260509231556 28 128 1.6 12.9 0.00 0.13 0.00 38 1008.3
20260509230058 28 223 1.6 6.4 0.00 0.13 0.00 36 1008.5
20260509224552 28 132 1.6 6.4 0.00 0.13 0.00 35 1008.7
20260509223105 28 15 3.2 0.0 0.00 0.13 0.00 36 1008.9
20260509221600 28 0 0.0 6.4 0.00 0.13 0.00 36 1009.0
20260509220052 28 44 1.6 8.0 0.00 0.13 0.00 40 1009.2
20260509214601 29 105 0.0 6.4 0.00 0.13 0.00 39 1009.0
20260509213055 29 84 0.0 8.0 0.00 0.13 0.00 37 1009.2
20260509211551 30 0 1.6 8.0 0.00 0.13 0.00 37 1009.3
20260509210056 29 0 0.0 11.3 0.00 0.13 0.00 38 1009.5
20260509204553 30 207 1.6 4.8 0.00 0.13 0.00 37 1009.6
20260509203055 30 0 1.6 6.4 0.00 0.13 0.00 35 1009.8
20260509201553 30 0.0 0.0 0.00 0.13 0.00 36 1009.9
20260509200111 30 0.0 0.0 0.00 0.13 0.00 34 1010.2
20260509194556 30 0.0 0.0 0.00 0.13 0.00 36 1010.4
20260509193055 30 0.0 0.0 0.00 0.13 0.00 32 1010.6
20260509191553 30 0.0 0.0 0.00 0.13 0.00 34 1010.8
20260509190054 30 0.0 0.0 0.00 0.13 0.00 34 1011.0
20260509184553 30 0.0 0.0 0.00 0.13 0.00 37 1011.2
20260509183108 29 0.0 0.0 0.00 0.13 0.00 41 1011.5
20260509181558 29 0.0 0.0 0.00 0.13 0.00 45 1011.5
20260509180055 29 0.0 0.0 0.00 0.13 0.00 44 1011.8
20260509174552 28 0.0 0.0 0.00 0.13 0.00 44 1011.9
20260509173057 28 0.0 0.0 0.00 0.13 0.00 49 1012.1
20260509171556 27 0.0 0.0 0.00 0.13 0.00 55 1012.1
20260509170053 27 187 3.2 0.0 0.00 0.13 0.00 54 1012.1
20260509164555 26 0 0.0 0.0 0.00 0.13 0.00 55 1012.5
20260509163056 25 0 0.0 0.0 0.00 0.13 0.00 58 1012.7
20260509161551 25 0.0 0.0 0.00 0.13 0.00 62 1012.8
20260509160055 24 0 0.0 0.0 0.00 0.13 0.00 65 1012.5
20260509154555 23 0 0.0 0.0 0.00 0.13 0.00 69 1012.5
20260509153055 23 0 0.0 0.0 0.00 0.13 0.00 66 1012.3
20260509151556 22 0 0.0 0.0 0.00 0.13 0.00 77 1012.5
20260509150052 20 0 0.0 0.0 0.00 0.13 0.00 87 1012.2
20260509144556 18 0 0.0 0.0 0.00 0.13 0.00 93 1012.3
20260509143101 17 0 0.0 0.0 0.00 0.13 0.00 95 1012.6
20260509141600 16 0 0.0 0.0 0.00 0.13 0.00 95 1012.5
20260509134551 14 0 0.0 0.0 0.00 0.13 0.00 95 1012.2
20260509133051 13 0 0.0 0.0 0.00 0.13 0.00 95 1012.2
20260509131552 12 0 0.0 0.0 0.00 0.13 0.00 95 1012.1
20260509130052 11 0 0.0 0.0 0.00 0.13 0.00 95 1011.7
20260509124554 10 0 0.0 0.0 0.00 0.13 0.00 94 1011.7
20260509123115 10 0 0.0 0.0 0.00 0.13 0.00 94 1011.6
20260509121558 9 0 0.0 0.0 0.00 0.13 0.00 94 1011.3
20260509120052 9 0 0.0 0.0 0.00 0.13 0.00 93 1011.1
20260509114549 9 0 0.0 0.0 0.00 0.13 0.00 93 1011.0
20260509113050 10 0 0.0 0.0 0.00 0.13 0.00 93 1010.7
20260509111552 10 0 0.0 0.0 0.00 0.13 0.00 94 1010.8
20260509110053 10 0 0.0 0.0 0.00 0.13 0.00 93 1010.7
20260509104552 10 0 0.0 0.0 0.00 0.13 0.00 93 1010.7
20260509103101 10 0 0.0 0.0 0.00 0.13 0.00 93 1010.9
20260509101553 10 0 0.0 0.0 0.00 0.13 0.00 93 1010.9
20260509100059 10 0 0.0 0.0 0.00 0.13 0.00 93 1011.2